IBS1706 LEIB-LEMD

Flight info

Callsign IBS1706
Flight time 0h 49m
Altitude 31000
Route XOSTA M134 VLC N733 PRADO
Aircraft A320/M-SDE3FGHIRWY/LB1

Departure

Time 2026-05-03 23:19
Airport Ibiza Airport (LEIB)

Arrival

Time 2026-05-04 00:08
Airport Adolfo Suárez Madrid–Barajas Airport (LEMD)
Time Latitude Longitude Altitude Speed Heading
2026-05-03 22:47 38.87624 1.37057 8 ft 0 kts 333°
2026-05-03 23:08 38.87603 1.37070 8 ft 4 kts 340°
2026-05-03 23:08 38.87577 1.37079 10 ft 4 kts 357°
2026-05-03 23:08 38.87553 1.37074 10 ft 4 kts 44°
2026-05-03 23:08 38.87546 1.37062 11 ft 1 kts 62°
2026-05-03 23:09 38.87545 1.37061 11 ft 0 kts 62°
2026-05-03 23:13 38.87546 1.37063 8 ft 1 kts 62°
2026-05-03 23:13 38.87558 1.37093 11 ft 6 kts 62°
2026-05-03 23:13 38.87586 1.37160 8 ft 11 kts 62°
2026-05-03 23:13 38.87631 1.37269 8 ft 16 kts 61°
2026-05-03 23:14 38.87681 1.37388 8 ft 14 kts 62°
2026-05-03 23:14 38.87675 1.37492 9 ft 12 kts 143°
2026-05-03 23:14 38.87605 1.37543 9 ft 11 kts 150°
2026-05-03 23:14 38.87594 1.37613 9 ft 9 kts 64°
2026-05-03 23:15 38.87633 1.37704 11 ft 14 kts 61°
2026-05-03 23:15 38.87691 1.37837 9 ft 20 kts 61°
2026-05-03 23:15 38.87762 1.38011 9 ft 23 kts 62°
2026-05-03 23:15 38.87839 1.38199 10 ft 25 kts 62°
2026-05-03 23:16 38.87921 1.38397 9 ft 23 kts 62°
2026-05-03 23:16 38.87986 1.38553 10 ft 10 kts 62°
2026-05-03 23:16 38.87998 1.38630 9 ft 8 kts 117°
2026-05-03 23:16 38.87957 1.38662 10 ft 6 kts 154°
2026-05-03 23:17 38.87929 1.38680 11 ft 3 kts 154°
2026-05-03 23:17 38.87920 1.38685 11 ft 0 kts 154°
2026-05-03 23:17 38.87918 1.38686 11 ft 3 kts 154°
2026-05-03 23:17 38.87866 1.38695 11 ft 10 kts 206°
2026-05-03 23:18 38.87828 1.38625 11 ft 10 kts 241°
2026-05-03 23:18 38.87743 1.38420 13 ft 59 kts 242°
2026-05-03 23:18 38.87564 1.37987 13 ft 104 kts 242°
2026-05-03 23:18 38.86965 1.36545 229 ft 154 kts 243°
2026-05-03 23:19 38.86486 1.35324 940 ft 153 kts 242°
2026-05-03 23:19 38.86008 1.34061 1546 ft 166 kts 241°
2026-05-03 23:19 38.85648 1.33118 1790 ft 183 kts 241°
2026-05-03 23:19 38.85035 1.31546 2088 ft 212 kts 242°
2026-05-03 23:20 38.84369 1.29853 2881 ft 214 kts 242°
2026-05-03 23:20 38.83704 1.28158 3851 ft 212 kts 243°
2026-05-03 23:20 38.83037 1.26451 4695 ft 216 kts 246°
2026-05-03 23:20 38.82661 1.24591 5481 ft 221 kts 267°
2026-05-03 23:21 38.82788 1.22522 5917 ft 245 kts 276°
2026-05-03 23:21 38.83011 1.20275 6526 ft 260 kts 277°
2026-05-03 23:21 38.83243 1.17950 7392 ft 264 kts 276°
2026-05-03 23:21 38.83634 1.15641 8348 ft 267 kts 287°
2026-05-03 23:22 38.85763 1.11643 10164 ft 280 kts 308°
2026-05-03 23:22 38.87138 1.09791 10545 ft 302 kts 308°
2026-05-03 23:22 38.88631 1.07763 10924 ft 321 kts 308°
2026-05-03 23:23 38.90186 1.05654 11607 ft 328 kts 309°
2026-05-03 23:23 38.91772 1.03511 12389 ft 332 kts 308°
2026-05-03 23:23 38.93370 1.01351 13177 ft 336 kts 308°
2026-05-03 23:23 38.94989 0.99159 13944 ft 339 kts 307°
2026-05-03 23:24 38.96628 0.96935 14626 ft 343 kts 307°
2026-05-03 23:24 38.98276 0.94696 15304 ft 346 kts 307°
2026-05-03 23:24 38.99916 0.92464 15969 ft 350 kts 307°
2026-05-03 23:24 39.01617 0.90144 16645 ft 353 kts 307°
2026-05-03 23:25 39.03293 0.87857 17309 ft 357 kts 307°
2026-05-03 23:25 39.05007 0.85520 17966 ft 360 kts 307°
2026-05-03 23:25 39.06740 0.83152 18579 ft 364 kts 307°
2026-05-03 23:25 39.08488 0.80757 19150 ft 367 kts 307°
2026-05-03 23:26 39.10246 0.78349 19728 ft 371 kts 307°
2026-05-03 23:26 39.11995 0.75900 20320 ft 371 kts 303°
2026-05-03 23:26 39.13436 0.73204 20878 ft 369 kts 294°
2026-05-03 23:26 39.14485 0.70203 21456 ft 367 kts 286°
2026-05-03 23:27 39.15392 0.67099 22019 ft 371 kts 286°
2026-05-03 23:27 39.16304 0.63980 22584 ft 374 kts 286°
2026-05-03 23:27 39.17227 0.60828 23133 ft 377 kts 286°
2026-05-03 23:27 39.18160 0.57646 23669 ft 381 kts 286°
2026-05-03 23:28 39.19091 0.54467 24107 ft 383 kts 286°
2026-05-03 23:28 39.20033 0.51246 24589 ft 384 kts 286°
2026-05-03 23:28 39.20981 0.48003 25065 ft 385 kts 286°
2026-05-03 23:28 39.21929 0.44768 25527 ft 386 kts 286°
2026-05-03 23:29 39.22880 0.41521 25972 ft 388 kts 286°
2026-05-03 23:29 39.23834 0.38252 26417 ft 389 kts 286°
2026-05-03 23:29 39.24784 0.34980 26882 ft 390 kts 285°
2026-05-03 23:29 39.25733 0.31702 27319 ft 391 kts 285°
2026-05-03 23:30 39.26671 0.28449 27743 ft 392 kts 285°
2026-05-03 23:30 39.27626 0.25136 28169 ft 393 kts 285°
2026-05-03 23:30 39.28581 0.21825 28565 ft 394 kts 285°
2026-05-03 23:30 39.29543 0.18498 28955 ft 396 kts 285°
2026-05-03 23:31 39.30507 0.15164 29334 ft 397 kts 285°
2026-05-03 23:31 39.31474 0.11810 29703 ft 398 kts 285°
2026-05-03 23:31 39.32440 0.08453 30064 ft 400 kts 285°
2026-05-03 23:31 39.33409 0.05076 30349 ft 401 kts 285°
2026-05-03 23:32 39.34365 0.01735 30624 ft 402 kts 285°
2026-05-03 23:32 39.35338 -0.01666 30942 ft 403 kts 285°
2026-05-03 23:32 39.37245 -0.08307 31013 ft 382 kts 285°
2026-05-03 23:33 39.39073 -0.14697 31018 ft 376 kts 285°
2026-05-03 23:33 39.40865 -0.20999 31021 ft 375 kts 284°
2026-05-03 23:34 39.42661 -0.27353 31024 ft 375 kts 284°
2026-05-03 23:34 39.44450 -0.33706 31027 ft 375 kts 284°
2026-05-03 23:35 39.46246 -0.40047 31025 ft 375 kts 284°
2026-05-03 23:35 39.48022 -0.46351 31021 ft 374 kts 284°
2026-05-03 23:36 39.50394 -0.52432 31017 ft 381 kts 293°
2026-05-03 23:36 39.53045 -0.58396 31016 ft 381 kts 293°
2026-05-03 23:37 39.55665 -0.64320 31019 ft 381 kts 293°
2026-05-03 23:37 39.58293 -0.70286 31037 ft 381 kts 293°
2026-05-03 23:38 39.60922 -0.76270 31016 ft 382 kts 294°
2026-05-03 23:38 39.63549 -0.82237 31025 ft 383 kts 293°
2026-05-03 23:39 39.66193 -0.88265 31014 ft 384 kts 293°
2026-05-03 23:39 39.68826 -0.94293 30992 ft 384 kts 293°
2026-05-03 23:40 39.71472 -1.00354 30985 ft 384 kts 293°
2026-05-03 23:40 39.74093 -1.06372 30976 ft 384 kts 293°
2026-05-03 23:41 39.76721 -1.12426 30981 ft 384 kts 293°
2026-05-03 23:41 39.79359 -1.18481 30994 ft 385 kts 293°
2026-05-03 23:42 39.81985 -1.24518 31006 ft 386 kts 293°
2026-05-03 23:42 39.84623 -1.30613 31004 ft 386 kts 293°
2026-05-03 23:43 39.87255 -1.36714 31006 ft 386 kts 292°
2026-05-03 23:43 39.89872 -1.42792 30847 ft 388 kts 293°
2026-05-03 23:44 39.91187 -1.45835 30474 ft 385 kts 293°
2026-05-03 23:44 39.92500 -1.48868 29905 ft 382 kts 293°
2026-05-03 23:44 39.93801 -1.51874 29351 ft 379 kts 293°
2026-05-03 23:44 39.95085 -1.54852 28825 ft 375 kts 292°
2026-05-03 23:45 39.96354 -1.57805 28299 ft 371 kts 292°
2026-05-03 23:45 39.97604 -1.60731 27784 ft 368 kts 292°
2026-05-03 23:45 39.98846 -1.63639 27293 ft 365 kts 292°
2026-05-03 23:45 40.00079 -1.66524 26801 ft 362 kts 292°
2026-05-03 23:46 40.01303 -1.69386 26335 ft 360 kts 292°
2026-05-03 23:46 40.02522 -1.72234 25869 ft 358 kts 292°
2026-05-03 23:46 40.03718 -1.75030 25419 ft 356 kts 292°
2026-05-03 23:46 40.04920 -1.77849 24969 ft 354 kts 292°
2026-05-03 23:47 40.06111 -1.80652 24520 ft 351 kts 292°
2026-05-03 23:47 40.07293 -1.83435 24069 ft 350 kts 292°
2026-05-03 23:47 40.08470 -1.86207 23603 ft 348 kts 292°
2026-05-03 23:47 40.09639 -1.88964 23087 ft 346 kts 292°
2026-05-03 23:48 40.10804 -1.91706 22640 ft 343 kts 292°
2026-05-03 23:48 40.11962 -1.94427 22159 ft 341 kts 292°
2026-05-03 23:48 40.13108 -1.97131 21698 ft 339 kts 292°
2026-05-03 23:48 40.14249 -1.99833 21227 ft 338 kts 292°
2026-05-03 23:49 40.15386 -2.02527 20792 ft 339 kts 292°
2026-05-03 23:49 40.16519 -2.05211 20421 ft 343 kts 292°
2026-05-03 23:49 40.17670 -2.07936 20023 ft 342 kts 292°
2026-05-03 23:49 40.18819 -2.10653 19630 ft 340 kts 292°
2026-05-03 23:50 40.19964 -2.13352 19252 ft 338 kts 292°
2026-05-03 23:50 40.20716 -2.15125 18985 ft 336 kts 292°
2026-05-03 23:50 40.22228 -2.18704 18471 ft 333 kts 292°
2026-05-03 23:50 40.23340 -2.21351 18074 ft 331 kts 292°
2026-05-03 23:51 40.24444 -2.23989 17672 ft 330 kts 292°
2026-05-03 23:51 40.25462 -2.26622 17291 ft 325 kts 285°
2026-05-03 23:51 40.26064 -2.29427 16936 ft 317 kts 274°
2026-05-03 23:51 40.26207 -2.32280 16564 ft 313 kts 265°
2026-05-03 23:52 40.26190 -2.35134 16204 ft 313 kts 265°
2026-05-03 23:52 40.26175 -2.37978 15847 ft 312 kts 265°
2026-05-03 23:52 40.26161 -2.40819 15489 ft 312 kts 266°
2026-05-03 23:52 40.26147 -2.43656 15131 ft 311 kts 266°
2026-05-03 23:53 40.26131 -2.46484 14768 ft 310 kts 266°
2026-05-03 23:53 40.26116 -2.49313 14466 ft 307 kts 266°
2026-05-03 23:53 40.26102 -2.52022 14348 ft 297 kts 266°
2026-05-03 23:53 40.26087 -2.54688 14226 ft 287 kts 265°
2026-05-03 23:54 40.26073 -2.57263 14102 ft 278 kts 266°
2026-05-03 23:54 40.26058 -2.59760 13981 ft 269 kts 265°
2026-05-03 23:54 40.26045 -2.62173 13862 ft 261 kts 266°
2026-05-03 23:54 40.26038 -2.64528 13621 ft 258 kts 266°
2026-05-03 23:55 40.26031 -2.66843 13310 ft 256 kts 266°
2026-05-03 23:55 40.26024 -2.69177 13049 ft 254 kts 265°
2026-05-03 23:55 40.26019 -2.71482 12760 ft 252 kts 265°
2026-05-03 23:55 40.26013 -2.73769 12503 ft 249 kts 265°
2026-05-03 23:56 40.26005 -2.76030 12255 ft 248 kts 265°
2026-05-03 23:56 40.25994 -2.78285 12003 ft 247 kts 265°
2026-05-03 23:56 40.25985 -2.80539 11762 ft 247 kts 265°
2026-05-03 23:56 40.25977 -2.82784 11516 ft 246 kts 265°
2026-05-03 23:57 40.25968 -2.84993 11275 ft 245 kts 265°
2026-05-03 23:57 40.25959 -2.87221 11029 ft 244 kts 265°
2026-05-03 23:57 40.25947 -2.89448 10792 ft 244 kts 265°
2026-05-03 23:57 40.25937 -2.91667 10543 ft 243 kts 265°
2026-05-03 23:58 40.25927 -2.93888 10300 ft 243 kts 265°
2026-05-03 23:58 40.25919 -2.96106 10057 ft 242 kts 265°
2026-05-03 23:58 40.25909 -2.98282 9814 ft 242 kts 265°
2026-05-03 23:58 40.25897 -3.00484 9562 ft 241 kts 265°
2026-05-03 23:59 40.25886 -3.02678 9319 ft 240 kts 266°
2026-05-03 23:59 40.25873 -3.04864 9080 ft 239 kts 266°
2026-05-03 23:59 40.25861 -3.07031 8839 ft 237 kts 265°
2026-05-03 23:59 40.25847 -3.09183 8587 ft 236 kts 265°
2026-05-04 00:00 40.25832 -3.11327 8370 ft 235 kts 265°
2026-05-04 00:00 40.25829 -3.13439 8141 ft 235 kts 270°
2026-05-04 00:00 40.26076 -3.15565 7909 ft 236 kts 276°
2026-05-04 00:00 40.26361 -3.17683 7672 ft 236 kts 276°
2026-05-04 00:01 40.26641 -3.19798 7433 ft 235 kts 277°
2026-05-04 00:01 40.26917 -3.21908 7204 ft 234 kts 276°
2026-05-04 00:01 40.27191 -3.24005 7018 ft 234 kts 276°
2026-05-04 00:01 40.27467 -3.26106 6747 ft 232 kts 277°
2026-05-04 00:02 40.27742 -3.28189 6510 ft 231 kts 277°
2026-05-04 00:02 40.28015 -3.30260 6272 ft 230 kts 277°
2026-05-04 00:02 40.28421 -3.32293 6033 ft 232 kts 291°
2026-05-04 00:02 40.29277 -3.34061 5801 ft 235 kts 308°
2026-05-04 00:03 40.30312 -3.35625 5705 ft 220 kts 307°
2026-05-04 00:03 40.31302 -3.37115 5628 ft 213 kts 310°
2026-05-04 00:03 40.32368 -3.38408 5532 ft 206 kts 316°
2026-05-04 00:03 40.33479 -3.39574 5314 ft 203 kts 318°
2026-05-04 00:04 40.34600 -3.40711 5059 ft 203 kts 318°
2026-05-04 00:04 40.35705 -3.41827 4807 ft 202 kts 318°
2026-05-04 00:04 40.36821 -3.42954 4527 ft 202 kts 318°
2026-05-04 00:04 40.37934 -3.44078 4261 ft 201 kts 319°
2026-05-04 00:05 40.39044 -3.45200 3988 ft 201 kts 319°
2026-05-04 00:05 40.40146 -3.46314 3746 ft 196 kts 318°
2026-05-04 00:05 40.41206 -3.47385 3469 ft 187 kts 317°
2026-05-04 00:05 40.42205 -3.48394 3219 ft 175 kts 317°
2026-05-04 00:06 40.42825 -3.49022 3033 ft 165 kts 322°
2026-05-04 00:06 40.43705 -3.49915 2823 ft 154 kts 322°
2026-05-04 00:06 40.44791 -3.51017 2581 ft 146 kts 322°
2026-05-04 00:06 40.45588 -3.51827 2376 ft 144 kts 321°
2026-05-04 00:07 40.46110 -3.52366 2236 ft 144 kts 320°
2026-05-04 00:07 40.46910 -3.53172 2054 ft 145 kts 322°
2026-05-04 00:07 40.47706 -3.53974 1940 ft 143 kts 320°
2026-05-04 00:07 40.48399 -3.54687 1937 ft 104 kts 322°
2026-05-04 00:08 40.48838 -3.55133 1952 ft 60 kts 322°
2026-05-04 00:08 40.49116 -3.55418 1954 ft 31 kts 321°
2026-05-04 00:08 40.49215 -3.55602 1959 ft 22 kts 290°
2026-05-04 00:08 40.49266 -3.55769 1961 ft 20 kts 291°
2026-05-04 00:09 40.49301 -3.55956 1960 ft 22 kts 268°
2026-05-04 00:09 40.49269 -3.56128 1959 ft 16 kts 207°
2026-05-04 00:09 40.49150 -3.56141 1959 ft 18 kts 180°
2026-05-04 00:09 40.49018 -3.56138 1959 ft 20 kts 179°
2026-05-04 00:10 40.48874 -3.56139 1959 ft 22 kts 179°
2026-05-04 00:10 40.48770 -3.56192 1960 ft 16 kts 257°
2026-05-04 00:10 40.48768 -3.56332 1964 ft 15 kts 271°
2026-05-04 00:10 40.48768 -3.56465 1968 ft 14 kts 269°
2026-05-04 00:11 40.48767 -3.56588 1973 ft 13 kts 269°
2026-05-04 00:11 40.48767 -3.56692 1975 ft 10 kts 270°
2026-05-04 00:11 40.48767 -3.56769 1979 ft 7 kts 269°
2026-05-04 00:11 40.48766 -3.56825 1980 ft 7 kts 269°
2026-05-04 00:12 40.48765 -3.56914 1980 ft 12 kts 270°
2026-05-04 00:12 40.48765 -3.57047 1984 ft 17 kts 270°
2026-05-04 00:12 40.48767 -3.57221 1984 ft 21 kts 271°
2026-05-04 00:12 40.48766 -3.57430 1990 ft 25 kts 269°
2026-05-04 00:13 40.48760 -3.57670 1992 ft 26 kts 270°
2026-05-04 00:13 40.48761 -3.57881 1997 ft 16 kts 263°
2026-05-04 00:13 40.48657 -3.57927 1999 ft 18 kts 182°
2026-05-04 00:13 40.48597 -3.58042 2003 ft 19 kts 269°
2026-05-04 00:14 40.48597 -3.58226 2006 ft 21 kts 269°
2026-05-04 00:14 40.48597 -3.58431 2016 ft 23 kts 270°
2026-05-04 00:14 40.48596 -3.58644 2030 ft 19 kts 268°
2026-05-04 00:14 40.48603 -3.58786 2027 ft 15 kts 303°
2026-05-04 00:15 40.48714 -3.58810 2032 ft 18 kts 359°
2026-05-04 00:15 40.48763 -3.58847 2031 ft 7 kts 278°
2026-05-04 00:15 40.48761 -3.58905 2022 ft 6 kts 269°
2026-05-04 00:15 40.48761 -3.58947 2022 ft 2 kts 270°
2026-05-04 00:16 40.48761 -3.58956 2022 ft 0 kts 270°